Wetbulb
54.42 48.57 47.30 50.43 52.55 53.25 54.43 51.06 51.26 53.46 55.79 54.20 53.49 53.38 55.38 56.56 56.71 56.24 60.21 61.33 61.79 62.23 64.07 63.88 63.73 64.11 63.05 61.47 60.41 60.13 59.68 58.31 57.99 57.61 56.39 56.40 55.66 55.80 57.99 58.28 58.20 57.95 57.47 57.02
51.22 48.50 53.79 54.82 55.15 53.25 51.50 49.81 48.35 53.67 55.59 53.64 53.53 52.66 55.08 57.13 58.15 58.23 55.89 59.44 62.01 60.74 61.17 61.75 61.99 62.06 60.70 60.18 59.88 59.14 59.52 58.54 57.57 57.44 56.14 55.60 54.56 54.57 53.77 55.12 55.79 57.32 57.71 56.35
49.61 53.40 57.15 53.31 53.04 51.83 50.61 50.68 51.24 50.67 53.67 54.28 52.30 50.37 51.49 56.51 56.28 57.44 57.56 57.71 61.01 60.19 59.62 60.31 58.93 58.90 59.66 59.32 59.15 58.89 58.34 58.37 57.70 56.22 54.81 54.26 54.38 53.29 52.53 55.24 55.96 56.43 57.65 58.10
52.78 55.41 54.25 52.65 52.67 51.11 47.84 56.03 55.30 53.96 50.84 44.44 52.96 42.48 48.60 52.19 53.26 54.51 54.69 55.47 58.14 59.08 59.38 58.16 57.05 56.41 58.25 58.70 59.85 59.15 58.60 57.18 58.00 56.01 53.47 52.37 53.26 51.67 52.86 53.87 53.97 54.33 56.04 56.26
52.07 53.75 53.10 52.09 52.56 53.76 52.03 56.56 54.33 53.98 49.56 49.19 49.72 44.14 47.67 52.90 51.29 53.40 55.51 57.06 56.91 57.04 56.09 55.19 56.09 56.97 57.55 57.90 58.55 58.47 57.30 56.35 56.54 55.74 54.40 52.37 52.02 52.93 52.63 53.19 53.00 53.02 53.01 54.21
52.00 57.30 55.69 53.37 56.50 55.62 55.85 53.70 52.72 50.47 48.13 42.56 48.65 47.50 46.25 49.84 52.26 54.89 57.74 57.09 57.79 56.58 56.11 55.59 56.56 57.25 56.84 57.27 58.34 57.04 55.78 55.10 55.81 54.31 53.75 52.51 51.62 51.61 51.21 52.32 51.40 52.36 51.97 52.94
53.16 51.97 54.06 55.13 51.01 53.00 51.01 45.92 40.41 40.74 41.41 40.68 49.54 46.94 48.09 52.24 55.35 56.46 56.48 57.05 55.48 55.24 54.84 55.08 54.89 55.22 55.81 56.09 56.50 56.86 54.78 53.91 54.24 53.67 53.42 53.01 52.12 52.23 51.31 51.64 51.94 51.57 51.93 52.43
47.48 47.01 54.00 56.57 51.55 48.35 48.54 46.43 42.75 37.40 37.61 41.46 49.47 44.26 48.13 55.79 56.93 58.52 57.17 55.74 55.58 54.70 54.13 55.21 55.35 55.35 55.90 56.41 55.75 55.41 54.19 53.30 53.17 53.38 53.17 53.16 52.60 52.64 52.54 52.40 52.70 52.29 52.29 53.32
48.57 49.59 56.60 55.77 55.07 53.94 51.38 47.38 49.62 43.63 44.36 41.68 45.46 49.71 54.40 55.68 56.08 56.64 55.68 56.17 55.11 54.41 54.68 54.75 55.60 55.72 55.80 55.22 54.27 54.62 53.80 53.08 53.21 53.73 52.53 52.31 52.57 52.63 52.64 53.10 53.46 53.27 53.36 55.03
53.38 49.16 56.47 55.52 55.26 55.28 51.93 53.60 46.08 43.72 37.19 37.94 43.77 47.49 46.27 51.64 53.72 55.29 56.11 55.58 55.02 53.98 53.97 54.95 55.69 55.29 54.66 54.59 54.00 53.63 52.86 52.44 52.51 52.77 52.51 52.71 52.67 53.60 53.71 53.36 53.21 53.25 53.56 52.80
55.38 51.08 52.99 55.40 52.23 50.32 48.82 47.49 48.17 46.62 45.84 39.41 39.59 43.51 52.89 52.71 53.96 53.80 54.48 55.08 53.76 53.22 53.06 54.78 55.02 54.99 54.44 54.10 53.77 52.62 51.92 52.00 52.43 52.73 52.22 52.20 52.78 53.35 54.07 53.69 53.43 53.15 52.99 52.80
55.80 51.50 47.66 50.58 55.58 56.18 53.38 49.04 47.96 41.01 41.40 45.46 44.28 44.00 55.31 56.57 55.96 55.19 54.86 54.90 54.80 54.37 53.25 54.64 54.71 54.35 54.19 53.43 53.50 52.25 51.81 51.67 52.79 52.60 52.49 51.57 53.11 53.37 53.26 53.73 53.61 53.73 52.50 52.80
56.04 48.63 43.90 46.54 51.67 54.44 52.54 50.97 51.61 49.36 47.68 44.41 42.14 43.93 55.82 57.30 55.81 56.98 54.70 56.25 55.13 54.71 53.85 53.52 53.56 53.58 53.88 53.68 53.85 52.42 51.93 51.80 52.01 51.90 51.63 51.36 52.36 52.72 52.76 53.37 53.75 53.23 52.70 52.16
59.78 50.18 48.96 43.06 47.41 50.21 50.40 51.48 51.81 48.31 43.67 43.70 46.21 48.77 53.64 54.56 54.38 56.12 56.55 56.68 53.95 54.21 54.22 53.53 52.53 52.60 53.19 54.03 54.12 53.17 52.70 52.55 52.75 52.08 51.47 51.10 51.15 52.49 52.33 53.24 53.54 52.83 52.94 51.97
54.97 47.41 49.80 52.69 55.00 52.66 50.68 50.86 51.45 48.11 47.89 45.63 49.64 50.26 52.09 53.94 52.64 55.07 57.32 56.51 53.97 54.10 54.71 54.02 52.52 52.24 52.84 52.68 54.00 53.37 53.06 53.34 52.80 52.19 51.58 52.71 51.60 52.41 52.42 53.32 53.19 53.20 52.61 52.67
55.46 50.05 51.52 50.54 54.64 54.21 51.14 52.34 52.30 52.06 52.23 52.80 52.81 50.87 55.46 57.42 57.30 56.29 56.05 54.62 53.67 54.19 55.42 55.40 54.98 54.34 53.80 53.20 53.92 54.13 53.05 53.20 52.94 51.72 51.98 52.44 52.48 53.13 54.18 52.82 53.27 53.11 52.89 52.21
54.34 51.30 48.64 45.45 52.21 52.80 48.45 51.97 52.33 51.84 53.45 52.58 47.51 50.64 54.31 54.18 56.12 54.70 54.94 55.37 53.97 54.51 55.31 55.68 55.05 54.39 53.72 53.50 54.26 52.24 52.58 53.91 52.26 51.76 52.59 52.26 53.71 52.78 52.87 53.13 53.48 52.96 51.71 51.55
55.30 52.64 51.52 46.75 50.58 43.45 51.61 55.70 55.35 53.55 55.58 55.23 55.34 54.16 54.71 53.94 55.35 56.12 56.64 54.73 54.48 54.53 55.71 55.60 54.90 54.34 53.76 53.72 54.12 53.10 53.76 52.71 52.38 51.54 52.34 52.25 52.75 52.29 52.79 52.24 52.31 52.13 51.82 51.38
58.25 55.55 47.71 45.04 45.09 50.24 52.76 53.95 52.86 52.96 52.99 55.85 53.80 54.41 55.07 56.46 56.44 54.58 57.11 56.61 54.54 54.51 55.39 55.05 55.37 55.10 54.08 53.99 54.65 53.71 53.12 52.05 52.31 51.91 52.08 52.05 52.54 52.12 51.71 51.34 51.21 51.15 51.53 51.24
57.97 58.06 51.12 48.01 44.70 41.99 51.01 56.72 58.25 56.35 47.54 54.98 54.40 54.08 54.37 54.48 48.48 51.39 55.29 56.65 55.69 56.07 55.91 55.39 56.25 56.21 54.70 54.24 55.05 53.20 52.21 51.26 50.82 51.93 52.61 53.09 52.87 53.10 54.21 52.20 52.26 51.77 51.90 52.01
49.46 52.82 48.27 45.87 44.19 50.51 56.44 57.71 58.86 45.71 46.78 54.43 54.17 52.47 55.64 54.62 54.72 56.45 57.12 56.63 56.43 55.98 56.20 56.39 56.38 55.18 54.82 55.23 54.78 52.91 51.87 51.01 52.29 53.35 53.69 53.13 54.55 53.09 54.63 52.83 50.98 52.69 52.70 53.25
49.21 48.63 47.64 48.97 45.61 46.66 59.15 58.57 52.55 53.97 54.49 55.74 53.63 56.78 57.70 57.69 57.85 56.72 56.31 55.19 56.09 55.19 55.94 56.86 55.74 54.79 55.44 55.63 54.59 53.50 51.31 53.01 53.31 53.34 53.43 52.90 52.99 53.18 53.05 53.18 54.23 55.22 54.26 53.77
48.10 52.08 49.23 50.97 50.17 57.19 59.06 58.21 59.68 58.14 56.26 56.17 54.00 56.48 59.20 58.34 58.01 56.66 55.60 55.09 55.53 56.35 55.88 56.50 57.04 55.99 55.50 55.87 55.17 53.61 52.75 53.26 53.07 52.73 52.17 52.06 53.31 53.08 54.08 52.07 52.56 53.13 53.55 52.63
54.65 56.29 51.46 53.73 56.43 58.08 60.83 60.45 61.38 61.10 58.85 59.33 58.41 56.22 57.98 56.57 57.30 56.15 56.07 55.14 53.99 55.70 54.97 55.10 55.98 55.72 55.31 56.17 56.97 55.34 54.95 54.44 53.36 52.57 52.40 53.01 52.31 52.10 53.57 53.55 53.58 53.32 52.26 49.36
54.84 56.10 54.75 54.36 57.08 59.52 60.48 61.05 61.13 60.69 61.04 60.77 60.17 58.59 57.60 57.62 57.85 56.70 56.84 56.46 56.02 55.15 55.36 55.87 54.33 55.28 55.82 57.06 56.23 56.48 56.14 55.00 52.81 53.36 53.67 53.43 53.77 51.50 52.01 53.30 54.00 52.08 53.82 50.41
55.62 54.40 52.51 52.10 57.08 57.42 58.09 59.94 61.94 60.42 60.97 60.78 60.03 59.34 58.97 59.03 58.00 58.16 57.55 57.55 56.20 54.97 55.35 54.51 55.03 54.67 55.16 56.64 56.51 56.86 57.01 55.30 53.65 53.02 53.52 52.96 52.09 52.28 51.99 51.32 52.36 49.75 47.84 47.26
MSLP
1006.43 1007.07 1007.01 1006.67 1006.60 1007.55 1008.22 1009.81 1010.86 1012.33 1014.25 1015.36 1017.01 1017.71 1019.89 1021.00 1019.29 1021.57 1018.59 1020.15 1019.10 1018.40 1018.72 1018.76 1018.99 1019.68 1020.40 1020.55 1020.65 1020.68 1020.59 1020.46 1020.29 1020.29 1020.13 1019.81 1019.56 1019.21 1018.94 1018.45 1018.20 1017.90 1017.82 1017.90
1007.01 1006.67 1005.58 1005.55 1006.07 1006.98 1007.75 1009.09 1010.88 1013.45 1013.74 1014.09 1015.87 1017.24 1018.81 1020.55 1021.18 1021.53 1020.10 1018.94 1019.11 1018.65 1018.69 1018.69 1019.16 1019.82 1020.45 1020.79 1021.00 1020.82 1020.66 1020.55 1020.49 1020.53 1020.46 1020.30 1019.99 1019.75 1019.42 1019.06 1018.76 1018.53 1018.59 1018.56
1006.80 1006.02 1005.09 1005.38 1005.99 1006.82 1007.78 1009.11 1010.65 1013.32 1014.97 1016.59 1017.63 1019.08 1019.66 1019.43 1019.83 1020.64 1019.42 1019.44 1018.96 1018.21 1018.36 1018.75 1019.41 1019.94 1020.65 1020.93 1021.15 1020.97 1020.84 1020.80 1020.83 1020.91 1020.86 1020.74 1020.31 1020.09 1020.08 1019.78 1019.69 1019.17 1019.01 1018.92
1006.13 1004.92 1004.90 1005.46 1005.97 1006.74 1008.56 1009.55 1011.15 1013.01 1014.87 1018.15 1019.52 1020.90 1020.11 1019.37 1019.34 1019.66 1019.78 1019.30 1018.36 1017.91 1018.44 1018.72 1019.31 1020.28 1020.75 1021.11 1021.04 1021.11 1021.16 1021.13 1021.38 1021.43 1021.35 1021.47 1021.46 1021.27 1021.08 1020.66 1020.41 1020.00 1019.53 1019.37
1005.57 1005.12 1005.27 1005.59 1006.00 1006.50 1008.47 1009.28 1010.63 1012.35 1014.85 1017.28 1018.65 1019.79 1020.13 1020.32 1019.87 1019.78 1019.09 1018.70 1017.85 1017.98 1018.38 1019.02 1019.64 1020.35 1020.61 1020.84 1021.21 1021.45 1021.47 1021.53 1021.86 1021.96 1021.90 1021.93 1021.95 1021.76 1021.47 1021.14 1020.79 1020.43 1019.99 1019.73
1005.26 1005.01 1005.18 1005.57 1005.98 1006.58 1007.51 1009.41 1010.95 1012.86 1015.06 1017.98 1018.85 1020.13 1019.84 1019.82 1018.76 1019.06 1018.55 1017.77 1017.68 1018.17 1018.69 1019.24 1019.90 1020.17 1020.50 1020.63 1021.37 1021.65 1021.71 1021.90 1022.27 1022.31 1022.30 1022.29 1022.39 1022.31 1022.10 1021.71 1021.43 1021.03 1020.62 1020.20
1006.45 1005.57 1005.42 1005.65 1006.25 1006.74 1007.70 1009.28 1011.40 1013.69 1015.76 1017.80 1018.41 1019.40 1018.47 1017.84 1017.78 1017.72 1017.72 1017.26 1017.82 1018.22 1018.98 1019.61 1020.02 1020.43 1020.67 1021.02 1021.62 1021.78 1021.86 1022.38 1022.60 1022.55 1022.58 1022.62 1022.58 1022.48 1022.43 1022.17 1021.83 1021.49 1021.02 1020.63
1007.59 1007.11 1006.11 1006.07 1006.63 1007.34 1008.24 1009.43 1011.32 1013.24 1015.21 1017.10 1018.84 1018.71 1017.91 1017.10 1017.46 1017.37 1017.13 1017.13 1017.45 1018.10 1019.02 1019.79 1020.19 1020.57 1020.98 1021.31 1021.65 1021.89 1022.18 1022.72 1022.75 1022.77 1022.90 1022.84 1022.64 1022.55 1022.47 1022.29 1021.97 1021.70 1021.38 1021.03
1008.30 1007.79 1007.27 1006.65 1006.94 1007.54 1008.24 1009.17 1010.07 1011.87 1013.29 1016.20 1018.62 1018.21 1017.54 1016.99 1017.25 1017.08 1017.18 1017.27 1017.84 1018.50 1019.31 1019.98 1020.34 1020.77 1021.23 1021.57 1021.81 1022.11 1022.38 1022.84 1022.97 1023.05 1023.04 1023.00 1022.83 1022.72 1022.68 1022.45 1022.13 1021.88 1021.64 1021.03
1008.91 1008.88 1007.96 1007.31 1007.19 1007.51 1008.13 1008.85 1010.25 1011.91 1013.98 1016.08 1018.54 1018.98 1019.29 1017.53 1017.28 1017.32 1017.23 1017.63 1018.01 1018.75 1019.43 1019.98 1020.45 1020.95 1021.28 1021.70 1021.97 1022.11 1022.35 1022.93 1023.02 1023.03 1023.10 1023.05 1022.93 1022.85 1022.79 1022.56 1022.33 1021.96 1021.63 1021.18
1008.10 1009.28 1009.29 1008.36 1008.95 1008.83 1008.84 1009.75 1010.89 1012.03 1013.69 1015.26 1017.65 1019.00 1017.84 1017.40 1017.37 1017.23 1017.42 1017.63 1018.23 1018.87 1019.48 1020.13 1020.62 1021.08 1021.34 1021.71 1022.13 1022.42 1022.56 1022.94 1023.08 1023.09 1023.16 1023.11 1023.00 1022.91 1022.80 1022.63 1022.42 1022.12 1021.67 1021.29
1007.99 1008.85 1010.04 1010.01 1009.39 1008.96 1009.25 1009.97 1011.12 1012.89 1014.05 1014.68 1015.70 1017.29 1015.95 1017.02 1017.34 1017.15 1017.71 1017.62 1018.26 1018.77 1019.51 1020.03 1020.62 1021.13 1021.63 1021.96 1022.33 1022.52 1022.69 1022.91 1022.89 1022.99 1023.09 1023.04 1023.02 1022.99 1022.83 1022.71 1022.59 1022.14 1022.10 1021.51
1008.82 1009.51 1010.41 1010.58 1009.78 1009.30 1009.41 1009.65 1010.65 1011.80 1012.94 1014.21 1015.44 1016.51 1016.20 1017.12 1017.40 1017.71 1017.59 1017.63 1018.45 1019.05 1019.54 1020.07 1020.61 1021.24 1021.81 1022.07 1022.36 1022.61 1022.79 1022.81 1022.92 1022.86 1022.92 1022.94 1022.96 1023.00 1022.98 1022.85 1022.70 1022.30 1022.27 1021.96
1008.36 1009.80 1010.50 1010.88 1010.11 1009.67 1009.53 1009.43 1009.96 1011.33 1013.23 1013.84 1014.75 1015.94 1016.89 1017.21 1017.41 1017.96 1017.51 1017.60 1018.42 1019.02 1019.54 1020.20 1020.84 1021.49 1022.04 1022.18 1022.46 1022.70 1022.84 1022.71 1022.61 1022.78 1022.84 1022.97 1022.93 1022.85 1022.86 1022.86 1022.73 1022.52 1022.20 1022.05
1008.91 1010.11 1010.15 1010.40 1009.94 1009.45 1009.18 1009.18 1009.87 1010.86 1012.04 1013.75 1014.93 1015.21 1015.95 1016.63 1017.32 1017.50 1017.11 1017.67 1018.40 1019.04 1019.55 1020.20 1020.99 1021.43 1021.97 1022.36 1022.62 1022.68 1022.78 1022.71 1022.61 1022.63 1022.76 1022.83 1022.81 1022.74 1022.71 1022.77 1022.69 1022.58 1022.37 1022.10
1009.25 1010.13 1010.56 1010.71 1009.93 1009.32 1009.19 1009.02 1009.38 1010.16 1011.59 1013.10 1013.81 1014.50 1014.70 1015.63 1016.28 1016.62 1016.71 1017.46 1018.12 1018.78 1019.44 1020.18 1020.71 1021.29 1021.91 1022.19 1022.42 1022.49 1022.48 1022.51 1022.50 1022.62 1022.71 1022.60 1022.64 1022.68 1022.71 1022.70 1022.67 1022.54 1022.45 1022.26
1009.92 1010.76 1011.35 1011.48 1010.76 1010.18 1009.92 1009.32 1009.33 1010.21 1011.26 1012.41 1013.54 1014.11 1014.28 1015.26 1015.43 1015.74 1016.16 1016.86 1017.74 1018.48 1019.28 1020.15 1020.81 1021.37 1021.92 1022.03 1022.17 1022.38 1022.29 1022.37 1022.57 1022.70 1022.65 1022.57 1022.72 1022.83 1022.84 1022.74 1022.66 1022.58 1022.46 1022.32
1010.11 1010.97 1011.59 1011.98 1011.69 1011.90 1010.20 1009.35 1009.73 1010.58 1011.52 1012.34 1013.19 1013.70 1014.05 1014.56 1015.09 1015.33 1015.82 1016.66 1017.58 1018.36 1019.32 1020.15 1020.81 1021.49 1021.78 1021.96 1022.05 1022.11 1022.27 1022.39 1022.58 1022.69 1022.78 1022.64 1022.74 1022.80 1022.76 1022.69 1022.66 1022.50 1022.34 1022.23
1009.91 1011.02 1012.08 1012.43 1012.27 1011.32 1010.58 1009.99 1010.35 1011.19 1012.86 1012.94 1013.54 1013.82 1014.25 1014.79 1015.64 1016.81 1016.59 1016.98 1017.81 1018.69 1019.32 1020.19 1020.64 1021.16 1021.72 1021.99 1022.10 1022.18 1022.43 1022.54 1022.64 1022.66 1022.70 1022.66 1022.61 1022.75 1022.69 1022.63 1022.49 1022.36 1022.19 1022.05
1010.65 1011.30 1012.41 1012.94 1012.76 1012.00 1010.93 1010.49 1010.44 1011.36 1013.45 1013.57 1013.67 1014.31 1014.72 1015.02 1016.36 1017.77 1017.50 1017.70 1018.29 1018.80 1019.34 1020.10 1020.63 1021.07 1021.52 1021.85 1021.90 1022.14 1022.37 1022.51 1022.61 1022.51 1022.44 1022.42 1022.40 1022.38 1022.42 1022.40 1022.09 1022.08 1021.92 1021.88
1013.41 1013.08 1013.10 1013.31 1013.05 1012.23 1011.37 1010.80 1011.15 1012.62 1014.21 1013.91 1014.00 1014.50 1015.12 1016.14 1016.63 1017.32 1017.52 1018.03 1018.37 1018.84 1019.43 1019.93 1020.51 1021.13 1021.31 1021.59 1021.80 1022.18 1022.27 1022.36 1022.36 1022.27 1022.25 1022.25 1022.16 1022.19 1022.12 1022.02 1021.74 1021.72 1021.67 1021.52
1015.16 1016.57 1015.85 1014.52 1013.62 1012.78 1011.47 1011.53 1012.33 1013.54 1013.67 1013.96 1014.35 1014.85 1015.57 1016.19 1016.71 1017.22 1017.77 1018.15 1018.51 1018.94 1019.27 1019.73 1020.48 1020.87 1021.02 1021.18 1021.62 1022.09 1022.19 1022.04 1022.03 1022.08 1022.12 1022.18 1022.02 1021.94 1021.94 1021.70 1021.44 1021.28 1021.20 1021.23
1016.27 1016.11 1016.10 1016.30 1014.67 1012.62 1011.53 1011.86 1012.23 1012.62 1013.35 1013.94 1014.24 1014.65 1014.98 1015.95 1016.55 1017.04 1017.55 1017.94 1018.17 1018.56 1018.90 1019.19 1020.03 1020.45 1020.68 1020.88 1021.17 1021.64 1021.71 1021.68 1021.78 1021.94 1022.02 1021.92 1021.82 1021.72 1021.51 1021.54 1021.52 1021.19 1020.94 1020.95
1015.64 1015.04 1015.75 1015.10 1013.21 1012.15 1011.80 1011.82 1011.93 1012.42 1013.08 1013.43 1013.85 1014.20 1014.65 1015.32 1015.97 1016.65 1017.18 1017.60 1017.84 1018.24 1018.61 1018.93 1019.64 1020.22 1020.41 1020.43 1020.69 1020.89 1021.03 1021.22 1021.43 1021.75 1021.79 1021.61 1021.61 1021.42 1021.16 1021.07 1021.04 1020.92 1020.83 1020.71
1012.56 1012.96 1013.40 1012.87 1012.49 1011.72 1012.29 1011.74 1011.88 1012.13 1012.52 1012.99 1013.37 1013.82 1014.38 1014.89 1015.58 1016.32 1017.05 1017.43 1017.80 1018.18 1018.46 1018.80 1019.27 1019.63 1019.82 1019.89 1020.08 1020.14 1020.38 1020.65 1021.17 1021.43 1021.52 1021.45 1021.25 1021.09 1020.96 1020.70 1020.60 1020.60 1020.30 1020.47
1011.96 1012.19 1012.62 1013.01 1012.78 1012.58 1012.52 1012.07 1011.94 1012.13 1012.46 1012.67 1013.04 1013.44 1013.73 1014.32 1015.27 1015.96 1016.72 1017.03 1017.55 1017.96 1018.23 1018.68 1018.93 1019.18 1019.23 1019.44 1019.51 1019.50 1019.74 1020.07 1020.65 1021.02 1021.18 1021.18 1021.02 1020.81 1020.58 1020.32 1020.02 1019.72 1019.82 1019.86
Wind_Speed
9 1 7 16 8 5 19 6 6 4 22 11 10 17 10 7 18 8 12 9 11 11 11 10 11 11 11 7 7 6 7 7 7 8 8 8 7 4 4 5 7 5 5 7
7 8 16 3 6 1 6 4 5 12 13 9 9 7 6 5 6 8 12 10 3 8 7 8 9 11 8 7 6 7 7 7 7 5 5 3 4 3 3 4 9 9 8 8
8 14 3 4 7 6 6 9 7 14 13 14 10 9 7 6 3 4 2 1 7 10 9 8 11 9 7 7 6 7 7 7 8 7 5 5 5 4 5 9 8 8 9 7
12 5 3 6 8 8 8 13 18 14 5 6 4 3 5 6 10 4 6 10 6 8 8 8 9 9 7 6 7 8 8 8 8 7 6 8 8 6 5 6 5 5 7 8
5 5 9 7 5 6 6 15 9 7 8 7 6 5 8 7 6 7 8 10 8 9 11 10 10 9 7 7 8 7 7 8 8 8 7 5 7 3 5 5 8 8 6 6
5 8 7 3 7 5 4 7 4 7 5 6 2 4 8 5 8 2 8 6 8 10 11 10 9 8 7 7 11 6 7 7 8 7 7 8 8 7 6 6 5 5 5 5
13 3 7 5 4 5 9 7 4 5 5 5 9 6 10 13 10 12 9 8 9 9 9 9 9 7 6 8 9 7 8 8 7 7 7 7 7 7 6 6 5 6 5 4
4 8 7 4 4 2 6 4 5 3 4 4 9 0 7 9 14 12 8 9 9 10 10 9 8 7 9 8 8 7 7 9 7 7 6 6 7 4 4 5 4 4 4 4
4 6 12 8 3 2 6 5 6 3 1 7 3 4 6 7 14 10 11 10 7 9 11 9 9 8 9 8 8 7 8 8 6 6 5 5 5 6 5 7 5 4 4 4
4 3 16 6 2 2 2 5 6 6 3 5 2 6 7 8 7 8 12 10 6 8 10 9 8 8 8 7 7 8 8 8 7 7 5 3 5 6 5 5 6 6 5 6
12 7 7 10 4 5 8 6 6 3 4 2 5 4 9 16 7 8 9 8 9 9 9 10 8 8 8 8 8 7 7 8 7 5 3 3 5 6 5 4 5 6 5 6
3 5 3 2 6 3 3 5 6 6 7 2 6 5 4 10 6 11 10 9 8 10 9 10 9 8 8 7 7 7 7 6 6 5 4 5 5 6 6 5 5 5 6 5
1 3 4 9 7 5 2 4 6 2 2 3 5 1 7 14 17 9 9 9 8 10 10 9 9 8 7 6 7 7 6 6 4 3 5 4 4 5 6 5 5 6 5 6
9 3 6 7 7 3 4 5 6 6 3 2 4 8 10 9 11 6 3 8 9 10 9 9 8 8 7 6 7 6 5 5 6 3 4 4 2 4 4 2 4 5 5 5
5 2 4 3 8 6 5 4 8 6 5 7 4 7 10 12 16 16 7 8 10 11 11 9 8 8 7 6 6 6 5 2 4 5 4 4 2 4 4 4 3 4 4 5
2 0 3 5 8 6 6 6 6 6 9 8 8 5 9 13 12 8 8 13 10 11 11 11 10 9 7 6 5 5 3 1 3 6 4 4 3 3 4 5 3 4 4 5
5 4 4 4 10 12 8 3 7 7 6 7 5 5 7 6 9 9 9 13 10 10 10 10 10 8 6 5 6 4 1 4 5 5 4 6 5 5 4 4 5 4 3 4
5 5 3 4 3 3 7 7 8 9 8 9 9 7 7 5 5 11 12 12 10 10 11 10 8 7 6 4 4 3 4 4 4 4 4 5 5 3 3 4 4 3 2 2
5 5 1 4 3 4 4 5 6 7 6 8 8 7 7 8 11 10 10 12 10 10 10 8 8 7 6 4 4 4 5 6 5 4 3 4 3 3 2 3 3 2 2 2
1 3 6 1 1 2 4 6 7 10 3 5 10 7 5 4 5 3 8 9 8 9 9 9 8 7 8 3 3 5 5 5 3 2 2 4 1 3 1 3 4 2 2 2
6 6 5 2 3 2 2 6 2 1 9 5 7 4 5 5 6 7 9 7 8 8 10 8 8 8 8 5 2 5 5 3 3 1 2 1 0 2 2 3 3 3 4 4
6 4 5 5 2 1 3 2 3 7 4 8 5 8 9 9 9 9 9 9 10 9 7 8 8 7 7 6 5 5 4 2 3 1 2 2 2 3 2 5 5 5 4 4
1 7 6 6 4 8 3 7 6 8 8 6 7 8 11 10 8 10 9 9 9 9 7 6 9 8 7 7 7 5 6 4 2 2 3 3 4 4 5 4 6 4 3 2
8 4 4 6 4 7 8 4 8 7 7 8 6 6 8 9 9 9 9 8 7 7 7 6 8 7 7 7 7 7 6 6 3 3 4 5 5 7 6 4 4 3 3 2
7 12 11 3 8 6 4 7 10 7 10 9 9 7 7 8 7 8 7 8 7 7 5 7 6 6 7 8 7 7 7 7 5 4 4 6 5 5 5 6 5 5 4 4
2 2 4 3 1 6 2 8 4 5 3 10 9 8 8 8 7 7 8 7 7 7 6 6 6 6 4 6 7 7 8 8 6 4 4 4 3 5 4 4 5 7 10 9
Wind_Direction
272 226 234 227 232 218 181 157 197 103 140 103 106 77 35 95 109 133 86 39 95 111 122 123 114 104 95 81 71 62 63 35 37 38 21 16 1 5 5 6 28 24 43 45
316 247 259 155 236 78 48 94 93 70 101 80 81 129 124 62 122 176 133 142 197 115 113 115 110 101 102 105 93 66 68 51 37 46 18 14 349 6 13 353 9 11 47 48
231 260 209 290 38 71 49 79 48 119 85 51 87 4 4 331 133 189 109 171 202 140 126 107 103 112 113 102 104 79 63 60 48 44 26 13 354 5 14 21 28 40 44 51
262 231 148 65 56 48 62 92 99 159 96 103 310 285 272 284 339 353 287 305 175 116 121 107 97 95 121 125 100 79 65 53 59 44 38 38 20 18 359 11 16 359 19 23
258 31 80 83 68 54 154 122 136 111 82 93 11 98 287 341 314 300 303 272 133 129 107 104 100 103 95 109 97 86 68 54 60 56 48 38 33 20 4 0 11 359 359 12
230 147 109 90 81 79 294 146 57 73 116 48 243 106 276 233 213 328 284 194 129 104 101 99 107 107 106 87 104 96 80 60 70 71 49 43 34 13 17 2 358 342 344 354
342 160 106 84 14 28 17 12 344 17 39 195 147 110 242 217 232 202 211 106 105 107 109 94 83 88 84 85 118 100 76 62 88 71 56 45 31 23 16 351 346 345 344 354
82 332 24 71 58 43 303 120 134 285 163 162 158 56 291 197 213 201 143 108 97 100 106 102 94 76 79 84 93 96 86 82 94 78 59 34 28 11 353 357 344 347 356 353
142 302 312 72 357 91 303 2 230 182 325 91 76 326 335 161 170 139 118 99 109 113 120 115 97 79 89 85 70 104 92 85 107 94 67 36 12 9 2 357 1 0 357 358
33 38 287 174 249 186 235 256 10 0 8 77 357 79 299 270 150 151 128 123 125 118 112 107 97 85 83 99 81 68 74 109 103 81 65 39 18 15 3 4 13 11 1 353
153 134 329 56 6 351 355 12 20 90 67 97 149 220 233 230 169 143 133 129 111 111 115 112 104 93 91 81 81 72 57 104 98 100 84 23 33 14 12 6 13 3 3 5
27 129 95 197 288 322 334 109 93 107 309 302 117 287 264 126 132 110 114 102 105 105 108 113 114 102 92 87 95 83 58 69 139 136 109 46 30 19 16 13 10 5 10 3
18 352 93 343 2 337 292 141 116 146 71 289 98 192 98 83 55 13 124 126 117 112 101 103 101 94 91 98 100 88 68 17 159 131 117 67 40 43 24 42 14 14 18 351
93 49 132 174 209 284 256 180 173 118 71 330 55 102 95 110 122 214 244 139 131 125 116 103 94 99 90 78 103 99 81 38 345 124 140 114 59 87 48 39 32 15 18 355
101 102 353 285 243 250 321 320 105 91 57 88 135 109 150 164 167 199 169 135 122 117 113 112 104 101 96 70 99 100 87 54 348 5 127 166 164 88 46 35 56 10 11 356
34 135 15 288 345 318 229 292 130 124 115 76 97 80 117 144 164 149 171 123 119 119 121 120 111 97 92 93 96 118 118 306 59 3 74 73 134 85 49 44 38 12 7 354
131 110 71 292 47 359 329 0 106 109 93 116 95 141 98 135 155 168 150 126 123 123 123 120 115 113 99 107 105 105 175 93 76 14 68 56 79 76 41 38 34 19 19 353
154 133 142 238 63 225 241 81 81 96 130 113 102 97 112 86 101 91 118 126 120 111 111 114 113 107 103 93 88 87 74 82 93 46 56 73 48 32 50 35 19 1 353 305
139 136 150 135 206 261 64 105 122 118 46 84 92 68 86 105 79 31 79 97 113 114 119 125 128 124 107 91 111 67 82 72 60 51 33 102 74 1 36 0 328 308 348 304
159 124 123 130 340 264 185 106 96 93 54 76 86 49 90 113 77 193 109 101 98 114 124 126 132 126 117 135 122 100 92 85 61 17 320 128 134 292 174 299 311 254 235 256
8 330 165 207 221 73 322 93 60 195 218 123 101 74 97 93 160 153 117 107 116 124 122 136 125 139 151 163 153 115 102 105 160 348 2 93 62 46 176 292 287 271 251 234
103 14 333 357 345 57 253 18 164 192 127 122 114 112 114 125 129 127 125 128 126 132 141 151 143 150 162 154 102 128 128 187 144 121 58 336 255 294 313 279 287 294 294 250
321 179 188 153 230 248 156 147 149 142 146 155 144 147 144 151 164 152 149 151 162 161 176 166 146 160 172 158 146 149 201 166 164 166 240 251 238 264 261 273 297 324 340 259
290 163 242 150 231 202 144 145 152 164 152 153 149 138 142 156 155 155 149 149 142 143 149 139 148 165 181 179 171 178 180 162 163 256 255 261 254 265 258 264 260 268 243 238
197 151 213 75 357 40 36 171 181 181 149 144 152 151 164 161 178 156 151 156 161 158 155 148 164 168 187 183 181 179 178 165 183 224 269 285 277 267 269 251 231 242 246 205
80 226 108 174 202 121 354 29 7 82 139 165 160 164 165 158 181 144 156 161 150 160 156 149 149 154 184 180 197 194 177 169 174 203 264 261 283 282 278 273 270 241 236 229